Wind_Speed
25 28 27 25 28 29 27 31 35 34 35 33 30 29 30 29 29 30 28 29 31 35 39 41 41 41 43 45 47 42 42 43 42 40 39 36 35 34 35 37 39 38 46 40 38 40 42
19 26 28 28 27 29 30 32 36 41 38 30 30 31 30 31 33 35 35 36 36 34 34 34 35 37 36 39 37 37 35 36 38 36 36 40 39 38 38 42 41 44 41 42 42 44 43
23 26 28 32 35 35 34 33 34 37 44 37 33 35 32 31 31 33 38 42 40 39 36 35 34 35 36 40 37 38 38 37 36 37 38 40 41 42 43 44 46 46 43 45 46 50 45
26 23 28 35 41 40 42 37 38 41 43 42 38 39 41 44 39 34 35 37 44 42 41 39 38 38 40 43 44 43 42 41 41 42 43 43 45 46 48 46 49 52 50 52 54 53 51
30 29 34 41 45 45 47 43 42 38 41 43 42 42 43 45 44 38 35 31 34 43 45 45 44 45 46 49 51 50 49 49 49 47 48 49 49 48 49 53 59 62 60 56 55 58 57
31 32 36 44 46 47 49 46 43 44 44 43 48 42 47 43 38 39 36 33 31 33 41 46 49 51 50 52 55 56 59 59 58 58 59 62 62 56 59 66 63 63 62 62 63 65 65
32 35 38 44 47 50 52 49 43 46 47 48 50 50 52 50 49 38 37 38 35 33 37 43 46 48 49 54 57 59 62 63 65 66 70 69 69 69 73 72 67 66 66 67 67 70 67
40 41 44 47 46 46 48 49 47 46 51 53 55 54 57 61 53 40 36 35 37 40 38 47 44 45 48 51 57 61 64 68 71 73 76 78 77 75 74 72 72 70 70 72 73 75 70
45 47 47 50 48 51 52 52 49 47 54 58 61 59 62 65 52 44 42 42 37 35 38 44 51 55 56 55 55 56 61 64 66 68 73 75 75 77 78 77 77 78 75 75 74 76 75
49 49 54 54 55 55 58 58 54 55 57 62 63 63 64 71 59 49 48 47 46 44 43 41 44 52 58 62 65 68 70 71 72 73 77 70 73 74 76 74 77 73 75 74 72 74 71
51 55 53 56 57 62 60 59 61 60 63 67 68 66 69 71 71 69 67 63 63 61 57 53 57 58 62 65 68 71 74 75 77 78 80 79 80 83 82 80 85 77 82 82 82 81 81
49 50 53 54 60 57 61 63 67 64 64 65 69 70 76 79 74 73 72 70 73 71 70 71 72 73 73 76 79 79 82 81 82 84 86 85 89 86 86 88 90 91 88 90 92 91 89
50 49 54 58 60 61 63 67 66 69 69 69 71 77 82 78 77 79 77 80 80 80 82 83 87 86 87 89 92 94 95 93 92 95 94 95 92 93 94 96 96 100 97 100 100 101 92
53 51 58 61 61 65 69 68 68 73 69 72 79 85 82 80 80 83 85 90 89 92 98 96 95 94 97 101 102 105 107 106 105 111 111 110 104 101 104 102 106 107 109 108 106 109 104
55 60 64 66 68 68 77 71 72 71 79 82 80 80 82 81 85 87 89 91 96 98 99 102 104 107 108 113 117 118 121 121 121 121 120 120 114 116 117 111 115 111 118 111 122 115 116
61 65 71 72 71 78 77 78 76 82 87 86 85 83 83 85 94 98 98 98 103 110 107 111 117 118 122 121 125 130 126 123 125 126 131 130 130 120 126 129 122 122 124 124 125 124 123
65 68 73 77 76 82 83 83 86 86 86 87 86 92 92 92 101 104 106 108 111 116 119 121 126 133 134 130 131 127 126 126 130 126 128 133 134 125 131 134 131 127 127 131 129 132 128
69 74 78 80 80 86 85 84 83 84 84 87 91 91 96 103 106 113 114 119 122 122 127 130 134 135 131 128 123 118 117 120 123 124 124 127 126 130 125 133 138 134 133 134 138 135 136
74 77 80 81 87 84 83 84 84 86 89 91 95 98 104 112 119 117 123 128 128 128 131 131 127 124 118 108 103 101 97 97 96 103 111 116 119 117 114 125 138 140 138 139 138 140 140
73 76 81 87 82 82 85 86 89 92 97 104 110 112 116 121 131 130 130 129 129 130 132 125 112 102 95 91 92 85 82 81 86 91 95 100 101 101 101 101 114 125 135 137 140 141 141
80 89 86 83 84 88 91 89 96 102 110 115 119 122 129 133 137 135 131 132 129 124 113 105 94 91 85 80 77 74 73 71 74 79 82 88 88 88 90 96 101 106 109 116 123 129 132
91 88 83 86 89 94 96 100 110 114 119 124 129 131 134 143 142 135 136 135 117 104 100 91 86 78 76 72 72 69 69 71 69 71 75 79 79 79 82 87 91 97 103 107 105 103 110
90 86 90 91 95 101 106 113 118 124 125 133 138 137 144 145 140 137 134 119 105 96 93 85 77 75 75 71 70 70 67 65 64 65 69 67 72 74 76 81 82 85 89 96 97 97 103
90 92 94 99 100 109 114 121 125 130 133 142 145 145 144 147 144 136 120 106 97 91 82 83 80 75 74 72 70 67 64 64 61 59 58 60 63 65 67 70 71 75 79 83 86 87 94
94 96 100 106 108 115 119 125 133 137 142 149 150 148 147 147 139 122 112 99 91 91 87 81 79 73 69 68 64 63 62 60 56 53 50 51 54 58 61 61 61 67 70 73 77 78 81
97 99 105 108 112 118 126 134 138 143 149 152 150 152 149 144 127 115 102 96 88 84 84 79 74 67 63 60 58 57 55 53 52 50 46 46 48 51 54 56 57 60 64 69 73 73 73
98 104 108 115 120 123 133 138 144 148 151 152 155 155 146 124 114 106 102 93 86 81 74 70 68 67 61 56 52 50 49 47 44 45 44 42 42 45 48 51 53 56 59 62 64 65 72
101 109 113 120 123 132 137 142 149 149 153 154 157 150 132 115 106 103 98 89 83 77 72 66 64 61 59 55 50 46 46 45 41 41 41 40 39 40 42 46 47 48 49 52 55 58 61
108 114 119 123 129 138 142 149 156 154 157 155 152 135 120 109 100 95 91 85 79 73 69 66 62 59 55 53 51 46 44 44 42 40 40 39 38 38 40 40 42 45 45 46 49 51 54
Wind_Direction
19 15 16 13 14 15 7 10 9 357 346 342 334 313 300 296 282 277 278 280 276 272 268 268 266 265 266 269 269 267 263 262 263 264 265 262 264 266 270 267 265 271 273 274 268 275 279
7 6 8 7 1 360 357 359 359 357 355 335 336 333 315 309 298 284 275 277 274 274 274 272 269 265 264 261 267 267 260 262 260 263 266 265 264 265 267 268 272 271 270 274 275 277 274
349 352 355 357 354 352 352 349 351 350 356 343 334 333 325 310 299 298 287 273 274 271 269 272 266 262 263 263 266 267 265 261 260 264 270 270 265 269 270 270 272 270 270 276 276 273 275
336 334 345 348 343 342 343 346 348 349 350 347 332 330 330 332 315 304 305 282 267 271 270 270 265 262 268 271 269 268 267 265 262 262 266 269 269 270 271 272 271 272 271 269 272 277 279
325 332 336 336 334 336 336 337 341 343 349 349 341 336 330 327 324 312 311 304 282 269 269 271 272 269 270 273 272 270 266 267 266 263 267 270 271 271 273 273 274 273 270 272 273 275 276
339 333 327 327 327 327 328 331 337 337 335 337 338 336 339 336 328 319 309 306 295 282 277 273 273 271 269 268 270 271 270 268 267 265 269 274 274 273 278 278 278 274 269 269 270 269 276
331 324 319 322 321 319 321 326 328 330 329 330 329 329 332 333 328 329 318 307 300 294 287 278 275 278 274 271 269 268 269 271 270 271 268 270 277 280 276 276 276 274 271 268 271 275 275
325 326 326 321 320 320 320 322 322 327 324 322 321 325 324 327 330 321 321 316 303 292 295 292 284 277 278 273 271 270 270 270 270 271 270 268 272 273 271 272 272 273 272 272 273 274 272
321 320 321 322 321 321 320 323 324 325 319 317 319 319 320 326 327 315 313 316 305 297 296 290 291 290 284 278 273 272 272 271 271 271 271 270 270 269 271 269 271 272 272 269 270 271 272
314 317 317 317 315 317 318 321 321 318 313 314 314 321 320 326 326 318 313 304 298 295 281 291 289 288 288 286 284 282 279 275 274 273 273 272 273 272 267 270 272 270 272 269 268 268 269
309 309 310 312 314 315 314 316 321 321 318 310 313 314 321 323 324 318 317 311 305 300 292 282 288 290 289 288 287 282 279 278 278 275 274 274 272 271 271 271 269 267 270 271 270 268 267
308 305 305 309 310 315 315 315 317 318 319 312 311 315 319 319 319 315 311 308 305 300 298 295 292 287 285 284 281 279 276 274 274 273 272 273 271 270 270 269 270 269 268 268 267 267 266
306 307 309 311 313 311 312 314 318 318 316 313 314 317 319 317 314 312 308 306 301 299 296 294 292 289 285 280 277 276 274 272 270 268 266 264 264 267 265 266 267 268 267 266 266 268 268
305 311 312 313 311 310 314 312 314 312 311 311 314 316 314 313 312 310 309 308 301 299 298 296 292 286 284 281 277 276 274 272 270 270 268 267 264 266 264 263 262 262 265 264 269 266 264
307 310 315 313 311 309 315 313 312 310 311 314 315 314 312 314 313 311 307 301 299 298 295 293 289 288 283 282 280 277 277 276 272 271 271 269 269 268 268 267 264 265 265 265 264 265 266
305 311 312 312 310 311 312 310 309 310 313 316 313 312 312 310 309 310 309 306 304 300 295 294 290 286 284 284 283 283 279 275 275 273 270 270 269 269 269 267 265 266 265 264 265 265 265
307 310 314 311 308 311 309 311 313 316 317 315 316 315 311 307 308 311 308 304 299 299 297 294 290 290 289 288 286 285 281 278 274 269 265 265 265 264 263 264 261 259 259 262 260 261 262
306 308 308 310 308 312 316 316 316 317 316 316 315 311 312 315 313 313 312 311 306 303 298 296 294 292 291 291 287 285 283 279 273 270 268 266 265 264 261 260 260 258 255 253 256 257 257
305 307 309 309 309 313 315 316 318 317 317 316 313 314 312 314 317 315 314 312 306 302 301 301 300 297 296 293 290 286 282 278 276 271 268 267 267 266 262 257 255 254 257 257 257 256 256
308 305 309 311 313 317 317 316 317 317 317 318 319 320 317 319 319 316 312 309 307 307 306 304 302 300 297 294 290 286 282 278 275 272 270 269 267 266 264 260 258 255 255 256 257 258 259
311 310 311 313 315 318 318 320 319 322 324 323 325 321 321 319 319 316 312 313 311 309 308 306 303 302 300 295 293 291 288 283 278 275 272 271 269 267 264 263 260 258 257 257 256 255 257
310 311 314 317 318 321 322 322 323 326 325 326 324 324 321 320 318 317 314 316 315 313 310 308 307 306 302 301 297 293 290 287 282 278 272 271 270 268 266 263 260 259 259 260 259 256 256
312 312 312 318 322 323 324 326 326 326 325 326 326 323 322 319 317 316 318 317 316 315 312 311 311 308 305 302 298 295 292 289 283 279 276 273 270 266 263 263 261 260 258 258 259 259 258
312 313 319 320 322 324 326 326 326 325 327 325 323 323 321 319 320 320 319 318 317 315 315 312 310 307 304 300 297 295 292 288 285 281 276 274 271 269 265 263 262 262 260 259 258 256 255
312 318 323 324 323 323 327 325 326 328 326 324 323 323 321 321 322 321 320 319 318 316 313 312 309 308 304 302 300 296 293 289 286 286 284 278 273 269 267 266 262 261 261 260 260 258 256
316 321 322 324 323 326 325 326 326 325 326 324 322 321 321 322 321 321 320 318 316 315 313 313 311 309 306 303 300 296 292 288 287 288 286 281 275 271 268 267 265 260 258 258 259 261 262
323 322 324 324 326 324 324 326 326 326 325 324 323 324 323 323 322 321 319 319 317 317 315 314 313 312 310 307 303 299 294 290 288 288 288 287 281 275 270 267 266 264 264 262 263 260 260
320 320 321 327 325 325 325 327 325 326 324 324 323 323 323 324 324 322 320 320 319 318 316 316 314 312 311 310 307 301 296 293 290 287 289 288 285 279 274 272 269 267 264 263 261 259 260
317 321 325 325 324 325 326 325 327 324 324 323 324 324 324 324 324 322 320 320 319 318 318 317 315 312 311 311 309 304 300 296 292 289 288 290 288 284 279 275 272 271 269 266 264 261 261
Height
10756 10752 10749 10745 10742 10738 10735 10732 10728 10725 10721 10718 10714 10710 10708 10705 10703 10701 10699 10696 10693 10692 10691 10690 10690 10689 10687 10684 10681 10685 10681 10677 10676 10675 10673 10672 10672 10670 10670 10668 10667 10670 10662 10665 10664 10665 10663
10756 10752 10749 10745 10741 10738 10734 10730 10726 10723 10719 10715 10711 10707 10702 10698 10695 10693 10692 10690 10687 10684 10683 10682 10681 10681 10679 10673 10676 10674 10674 10670 10668 10667 10666 10664 10663 10662 10662 10659 10659 10657 10656 10655 10656 10652 10654
10754 10751 10747 10743 10740 10736 10732 10728 10724 10719 10714 10710 10706 10702 10697 10693 10688 10685 10682 10681 10678 10677 10676 10674 10673 10672 10671 10666 10667 10665 10663 10663 10661 10659 10657 10654 10653 10653 10652 10650 10648 10646 10650 10646 10644 10640 10644
10752 10748 10744 10740 10737 10733 10729 10724 10719 10715 10710 10705 10701 10697 10692 10686 10681 10676 10672 10668 10669 10669 10667 10666 10666 10665 10663 10657 10657 10656 10654 10652 10650 10648 10646 10644 10643 10643 10641 10641 10638 10636 10638 10635 10631 10631 10632
10749 10745 10741 10737 10733 10729 10725 10720 10716 10711 10707 10701 10696 10691 10687 10680 10674 10669 10665 10662 10660 10659 10659 10658 10658 10656 10656 10650 10646 10646 10643 10641 10639 10637 10634 10632 10630 10631 10629 10628 10625 10622 10622 10624 10623 10617 10619
10747 10743 10739 10734 10729 10725 10720 10716 10711 10707 10702 10697 10692 10686 10681 10675 10669 10663 10659 10655 10653 10651 10648 10647 10646 10645 10644 10643 10636 10634 10630 10629 10627 10625 10621 10616 10616 10619 10617 10607 10611 10607 10609 10608 10608 10604 10603
10743 10739 10735 10731 10726 10720 10716 10711 10706 10701 10696 10690 10686 10679 10674 10669 10664 10657 10652 10648 10646 10645 10637 10636 10634 10631 10630 10628 10624 10620 10616 10615 10612 10610 10605 10601 10604 10605 10596 10590 10592 10590 10590 10592 10589 10586 10590
10739 10735 10731 10726 10721 10715 10710 10704 10699 10694 10689 10683 10678 10671 10666 10661 10655 10651 10645 10642 10638 10636 10636 10621 10621 10619 10614 10614 10608 10604 10598 10596 10595 10592 10586 10585 10591 10581 10577 10575 10571 10572 10572 10572 10571 10566 10572
10733 10729 10725 10721 10715 10710 10704 10698 10693 10687 10680 10674 10668 10663 10656 10649 10644 10640 10635 10630 10627 10625 10623 10618 10610 10604 10599 10596 10592 10588 10581 10579 10576 10573 10565 10569 10570 10561 10556 10555 10553 10550 10552 10550 10551 10546 10548
10727 10723 10718 10713 10707 10702 10697 10691 10685 10679 10672 10665 10659 10653 10647 10638 10633 10629 10624 10619 10614 10611 10608 10605 10599 10591 10585 10580 10575 10568 10564 10561 10557 10552 10543 10551 10545 10538 10538 10539 10525 10534 10525 10528 10529 10525 10532
10721 10717 10712 10706 10700 10695 10688 10683 10678 10671 10663 10654 10647 10641 10635 10628 10623 10614 10609 10603 10598 10592 10587 10584 10576 10570 10565 10561 10554 10550 10541 10536 10532 10529 10523 10528 10524 10516 10515 10515 10503 10516 10504 10504 10503 10504 10505
10715 10710 10705 10699 10692 10686 10680 10674 10668 10661 10653 10643 10634 10629 10623 10613 10607 10600 10593 10587 10581 10572 10567 10563 10560 10551 10540 10534 10527 10523 10515 10512 10507 10500 10497 10500 10489 10495 10494 10489 10485 10480 10484 10478 10473 10475 10481
10707 10702 10696 10690 10683 10677 10670 10663 10656 10650 10642 10631 10621 10614 10606 10600 10591 10583 10575 10567 10556 10546 10539 10538 10530 10523 10514 10506 10497 10488 10483 10481 10474 10462 10465 10461 10471 10465 10465 10460 10460 10449 10452 10446 10447 10447 10468
10699 10693 10687 10680 10673 10666 10660 10652 10645 10637 10629 10621 10611 10597 10591 10583 10575 10565 10555 10543 10531 10524 10513 10502 10499 10491 10478 10469 10460 10453 10448 10449 10443 10426 10425 10427 10442 10440 10434 10435 10427 10422 10421 10422 10419 10413 10428
10689 10683 10676 10669 10662 10654 10647 10639 10632 10622 10615 10606 10595 10585 10574 10564 10553 10545 10534 10520 10505 10492 10486 10473 10460 10447 10445 10436 10418 10415 10409 10412 10400 10393 10385 10385 10405 10404 10396 10406 10392 10407 10387 10404 10369 10389 10382
10678 10672 10664 10657 10649 10642 10633 10625 10616 10608 10598 10588 10578 10567 10558 10544 10531 10519 10505 10494 10471 10452 10443 10429 10415 10408 10400 10400 10380 10366 10374 10376 10354 10359 10349 10346 10346 10374 10349 10345 10365 10366 10357 10357 10354 10353 10356
10667 10660 10653 10644 10636 10627 10619 10609 10599 10590 10579 10570 10556 10543 10532 10520 10505 10488 10473 10457 10441 10419 10396 10380 10373 10355 10346 10342 10333 10327 10312 10312 10297 10304 10298 10294 10290 10325 10307 10296 10311 10319 10315 10308 10318 10312 10323
10656 10647 10639 10630 10620 10611 10601 10591 10581 10572 10561 10546 10534 10519 10503 10493 10472 10457 10437 10416 10398 10378 10359 10343 10325 10311 10298 10293 10279 10271 10260 10247 10243 10244 10245 10242 10246 10250 10274 10266 10258 10270 10271 10269 10260 10276 10279
10642 10634 10625 10615 10605 10595 10584 10573 10564 10552 10540 10528 10511 10495 10476 10459 10440 10422 10398 10373 10349 10329 10311 10295 10277 10259 10244 10234 10224 10220 10215 10207 10202 10197 10192 10192 10194 10197 10215 10225 10217 10217 10222 10229 10233 10232 10239
10627 10618 10610 10599 10589 10579 10567 10555 10542 10529 10515 10499 10481 10460 10442 10423 10398 10375 10356 10336 10315 10285 10260 10243 10230 10213 10204 10194 10180 10186 10180 10175 10164 10159 10157 10149 10155 10161 10166 10179 10173 10177 10185 10188 10194 10202 10203
10613 10605 10592 10582 10571 10561 10548 10533 10519 10502 10484 10467 10445 10424 10394 10377 10366 10341 10316 10291 10270 10250 10222 10199 10198 10178 10170 10162 10152 10145 10140 10140 10134 10126 10123 10115 10119 10124 10129 10132 10134 10136 10144 10147 10153 10165 10170
10595 10586 10575 10566 10553 10539 10526 10507 10485 10469 10450 10432 10415 10394 10372 10337 10315 10298 10273 10254 10228 10208 10188 10176 10161 10150 10140 10132 10121 10118 10112 10103 10106 10100 10095 10089 10092 10092 10093 10093 10099 10102 10105 10108 10118 10134 10136
10578 10569 10557 10545 10530 10515 10497 10478 10459 10441 10422 10398 10375 10361 10335 10301 10280 10263 10238 10215 10195 10182 10152 10143 10137 10126 10114 10107 10096 10087 10084 10082 10080 10073 10064 10067 10061 10061 10065 10062 10069 10074 10075 10075 10084 10093 10095
10561 10550 10538 10522 10506 10489 10470 10452 10433 10414 10389 10366 10346 10326 10305 10275 10246 10221 10203 10187 10168 10148 10140 10120 10108 10101 10092 10080 10072 10064 10060 10054 10050 10046 10043 10038 10035 10033 10035 10035 10041 10042 10045 10046 10049 10059 10059
10544 10530 10516 10501 10484 10467 10448 10428 10407 10383 10364 10336 10310 10291 10268 10243 10215 10192 10170 10158 10140 10121 10107 10097 10084 10076 10066 10055 10049 10040 10035 10030 10025 10024 10023 10018 10014 10011 10010 10012 10018 10016 10017 10020 10020 10026 10032
10526 10512 10497 10481 10463 10444 10425 10402 10381 10358 10335 10312 10275 10253 10234 10214 10179 10160 10146 10128 10119 10106 10082 10069 10060 10053 10045 10036 10027 10020 10015 10009 10005 10003 10002 9999 9996 9994 9991 9991 9995 9995 9995 9994 9994 10001 10006
10508 10493 10477 10461 10441 10423 10403 10380 10355 10332 10307 10281 10247 10224 10202 10182 10157 10134 10117 10104 10089 10075 10065 10053 10039 10027 10022 10016 10010 10002 9996 9993 9990 9986 9983 9980 9978 9976 9974 9973 9975 9973 9974 9976 9978 9983 9977
10489 10474 10458 10439 10419 10400 10377 10354 10330 10304 10278 10251 10220 10190 10167 10153 10132 10108 10089 10077 10063 10051 10041 10033 10022 10013 10005 9998 9992 9987 9979 9974 9974 9970 9967 9964 9963 9960 9958 9956 9956 9955 9957 9957 9957 9959 9959
10469 10454 10436 10417 10398 10376 10352 10328 10305 10277 10248 10219 10197 10167 10143 10125 10110 10090 10070 10055 10042 10033 10023 10013 10006 9997 9992 9983 9975 9971 9965 9959 9957 9955 9952 9950 9947 9945 9943 9942 9940 9938 9939 9939 9937 9939 9939